Location: Gars am Kamp
(48.5989°N, 15.6622°E)
Time: 21:59:39
(UTC+01:00)

ISS - Visible Passes

Search period start: 10 December 2018 00:00
Search period end: 20 December 2018 00:00
Orbit: 401 x 408 km, 51.6° (Epoch: 10 December)

Date Brightness Start Highest point End Pass type
(mag) Time Alt. Az. Time Alt. Az. Time Alt. Az.
10 Dec -3.4 17:30:34 10° WNW 17:33:48 60° SSW 17:36:18 15° SE visible
10 Dec -0.5 19:08:27 10° WSW 19:09:01 11° WSW 19:09:01 11° WSW visible
11 Dec -3.8 16:38:22 10° WNW 16:41:39 89° SSW 16:44:55 10° ESE visible
11 Dec -1.3 18:15:21 10° W 18:17:48 20° SW 18:19:45 12° S visible
12 Dec -2.0 17:22:50 10° W 17:25:47 31° SW 17:28:42 10° SSE visible
14 Dec -0.7 17:15:26 10° W 17:17:35 16° SW 17:19:43 10° S visible
